www.pogodaiklimat.ru

Погода и климат >> Архив погоды >> Дания >> Kegnaes


ПОГОДА в Kegnaes

  • Прогноз погоды в Kegnaes
  • Монитор погоды в Kegnaes
  • Климат города

АРХИВ ПОГОДЫ в Kegnaes

Время (UTC), дата Ветер
(напр.,м/с)
 
Видим.   Явления Облачность Т
(С)
Тd
(С)
f
(%)
Тe
(С)
Тes
(С)
Комфортность P
(гПа)
Po
(гПа)
Тmin
(С)
Tmax
(С)
R
(мм)
R24
(мм)
S
(см)
20 12.10 З 7 17 км ясно +12.2 +8.9 80 +9 +9 1016.8 1014.5
19 12.10 З 7 19 км в посл. час морось {ливн. осадки, дождь} ясно +12.0 +8.7 80 +9 +9 1016.0 1013.8 0.1
21 12.10 З 6
{13}
17 км в посл. час морось {ливн. осадки, дождь} ясно +12.2 +9.0 81 +10 +10 1017.1 1014.9 0.1
22 12.10 З 7 17 км ясно +12.3 +9.3 82 +9 +9 1017.4 1015.1
23 12.10 З 6 17 км 1/1 800 м
[]
+12.3 +9.3 82 +10 +10 1017.6 1015.3
00 13.10 З 6 22 км {ливн. осадки, дождь} 1/1 840 м
[]
+12.4 +9.2 81 +10 +10 1018.2 1015.9
02 13.10 З 5 20 км 1/1 700 м
[]
+12.0 +9.6 85 +9 +9 1019.0 1016.7
01 13.10 З 6 22 км ясно +12.1 +9.0 81 +9 +9 1018.6 1016.4
03 13.10 З 5 18 км ясно +11.7 +9.7 88 +9 +9 1019.3 1017.0
04 13.10 З 5 16 км 1/1 700 м
[]
+11.6 +9.7 88 +9 +9 1019.6 1017.3
05 13.10 ЮЗ 6 16 км 1/1 700 м
[]
+11.7 +10.0 89 +9 +9 1019.6 1017.3
06 13.10 ЮЗ 6 16 км ясно +11.4 +10.0 91 +8 +8 1019.9 1017.6 +11.3 +12.5
08 13.10 ЮЗ 8 9000 м дымка 6/6 30 м
[]
+11.7 +10.8 94 +8 +8 1020.6 1018.3
07 13.10 ЮЗ 8 15 км ясно +11.1 +9.7 91 +7 +7 1020.3 1018.0
09 13.10 ЮЗ 8 9000 м дымка 9/9 120 м
[]
+11.7 +10.6 93 +8 +8 1021.1 1018.8
10 13.10 ЮЗ 7 8000 м дымка 6/6 90 м
[]
+12.9 +11.7 92 +10 +11 1021.2 1018.9
11 13.10 ЮЗ 6 11 км 1/1 240 м
[]
+14.1 +11.8 86 +12 +13 1020.9 1018.6
12 13.10 ЮЗ 7 14 км {дымка} 1/1 600 м
[]
+14.6 +11.9 84 +12 +13 1020.6 1018.3
14 13.10 ЮЗ 9 17 км 6/6 570 м
[]
+14.5 +11.3 81 +12 +12 1020.4 1018.2
13 13.10 ЮЗ 8 18 км 4/4 800 м
[]
+14.7 +11.5 81 +12 +13 1020.4 1018.1
15 13.10 ЮЗ 9 12 км 6/6 400 м
[]
+14.2 +12.0 87 +12 +12 1020.6 1018.3
16 13.10 ЮЗ 10 12 км 10/10 300 м
[]
+14.1 +12.5 90 +11 +11 1020.1 1017.8
17 13.10 ЮЗ 10 7000 м дымка 10/10 210 м
[]
+14.1 +13.1 94 +11 +11 1020.2 1017.9
18 13.10 З 10 11 км {дымка} 9/9 270 м
[]
+14.6 +13.3 92 +12 +12 1020.1 1017.8 +10.8 +15.6
20 13.10 ЮЗ 10 5000 м дымка 10/10 150 м
[]
+14.4 +13.7 96 +12 +12 1019.8 1017.5
19 13.10 ЮЗ 10 9000 м дымка 9/9 240 м
[]
+14.4 +13.4 94 +12 +12 1020.0 1017.7
21 13.10 ЮЗ 10 9000 м дымка 10/10 210 м
[]
+14.7 +13.8 94 +12 +12 1019.4 1017.2
22 13.10 ЮЗ 12 11 км 6/6 270 м
[]
+15.0 +13.9 93 +12 +12 1019.3 1017.1
23 13.10 ЮЗ 12 12 км 6/6 210 м
[]
+15.1 +14.0 93 +12 +12 1018.9 1016.7
00 14.10 З 12 9000 м дымка 9/9 240 м
[]
+15.0 +14.1 94 +12 +12 1019.1 1016.8
02 14.10 ЮЗ 10 4700 м слаб. ливневой дождь 10/10 150 м
[]
+14.8 +14.2 96 +12 +12 1019.0 1016.7
01 14.10 ЮЗ 11 4800 м дымка 9/9 180 м
[]
+14.9 +14.2 96 +12 +12 1019.2 1016.9
03 14.10 З 10 3700 м слаб. ливневой дождь 10/10 180 м
[]
+14.7 +14.1 96 +12 +12 1019.2 1016.9 0.0
04 14.10 ЮЗ 11 9000 м дымка {ливн. осадки} 10/10 240 м
[]
+14.8 +14.0 95 +12 +12 1018.8 1016.5
05 14.10 З 11 9000 м дымка 10/10 240 м
[]
+14.8 +13.9 94 +12 +12 1019.0 1016.7
06 14.10 З 10 8000 м дымка {ливн. осадки, дождь} 10/10 210 м
[]
+14.8 +13.9 94 +12 +12 1019.1 1016.9 +14.2 +15.2 0.0
08 14.10 З 9 6000 м дымка 10/10 150 м
[]
+15.0 +14.2 95 +13 +13 1019.9 1017.7
07 14.10 З 10 7000 м дымка 10/10 180 м
[]
+14.9 +14.0 94 +12 +12 1019.4 1017.2
09 14.10 З 9 4000 м слаб. ливневой дождь 10/10 150 м
[]
+15.0 +14.4 96 +13 +13 1020.3 1018.1 0.1
10 14.10 З 9 6000 м дымка {ливн. осадки} 9/9 150 м
[]
+14.9 +14.4 97 +13 +13 1020.6 1018.3
11 14.10 З 8 4100 м дымка 9/9 120 м
[]
+15.0 +14.4 96 +13 +13 1020.9 1018.7
12 14.10 З 9 7000 м дымка {ливн. осадки, дождь} 9/9 150 м
[]
+15.1 +14.5 96 +13 +13 1020.7 1018.5 0.0
14 14.10 З 9 7000 м дымка 9/9 210 м
[]
+15.1 +14.2 94 +13 +13 1021.1 1018.8
13 14.10 З 9 8000 м дымка 9/9 210 м
[]
+15.2 +14.4 95 +13 +13 1020.9 1018.7
15 14.10 З 9 8000 м дымка 9/9 180 м
[]
+15.0 +14.1 94 +13 +13 1021.5 1019.2
16 14.10 З 10 10 км 4/4 300 м
[]
+15.0 +13.9 93 +13 +13 1021.4 1019.1
17 14.10 З 10 9000 м дымка 9/9 210 м
[]
+15.1 +14.0 93 +13 +13 1021.8 1019.5
18 14.10 З 8 8000 м дымка 9/9 210 м
[]
+14.9 +14.0 94 +13 +13 1022.3 1020.1 +14.8 +15.4
20 14.10 З 9 12 км 9/9 180 м
[]
+14.8 +14.1 96 +12 +12 1022.3 1020.1
19 14.10 З 9 10 км {дымка} 9/9 210 м
[]
+15.0 +14.2 95 +13 +13 1022.5 1020.2
21 14.10 З 8 8000 м в посл. час морось {ливн. осадки, дождь} 9/9 180 м
[]
+14.6 +14.0 96 +12 +12 1022.3 1020.0 0.0
22 14.10 З 8 8000 м дымка 9/9 180 м
[]
+14.7 +14.1 96 +12 +12 1022.4 1020.2
23 14.10 З 7 8000 м дымка 9/9 180 м
[]
+14.8 +14.0 95 +13 +13 1022.5 1020.2
00 15.10 З 6 8000 м дымка {ливн. осадки, дождь} 9/9 210 м
[]
+14.7 +13.9 95 +13 +13 1022.7 1020.4
02 15.10 З 6 8000 м дымка 9/9 180 м
[]
+14.6 +13.8 95 +13 +13 1022.8 1020.6
01 15.10 З 7 8000 м дымка 9/9 210 м
[]
+14.8 +14.1 96 +13 +13 1022.6 1020.4
03 15.10 З 6 8000 м дымка 9/9 150 м
[]
+14.6 +13.9 96 +13 +13 1023.0 1020.7
04 15.10 З 5 5000 м дымка 9/9 90 м
[]
+14.4 +13.7 96 +13 +13 1023.2 1021.0
05 15.10 З 5 3900 м дымка 9/9 60 м
[]
+14.2 +13.6 96 +12 +12 1023.5 1021.3
06 15.10 ЮЗ 3 2800 м дымка 9/9 60 м
[]
+14.1 +13.5 96 +13 +13 1023.6 1021.3 +14.1 +15.0
08 15.10 ЮЗ 5 2200 м дымка 10/10 30 м
[]
+13.7 +13.3 97 +12 +12 1023.2 1021.0
07 15.10 ЮЗ 6 2100 м в посл. час туман {дымка} 9/9 60 м
[]
+13.7 +13.3 97 +12 +12 1023.4 1021.1
09 15.10 ЮЗ 6 2300 м дымка {туман} ?/? +13.9 +13.5 97 +12 +12 1023.3 1021.0
10 15.10 ЮЗ 6 4800 м дымка 9/9 90 м
[]
+14.0 +13.5 97 +12 +12 1023.4 1021.1
11 15.10 Ю 6 9000 м дымка 4/4 180 м
[]
+15.2 +13.8 91 +14 +15 1023.0 1020.8
12 15.10 Ю 4 9000 м дымка {туман} ясно +16.9 +13.9 82 +17 +19 1022.2 1020.0
14 15.10 Ю 7 5000 м дымка ясно +15.4 +13.5 88 +14 +14 1021.0 1018.7
13 15.10 Ю 6 7000 м дымка ясно +16.3 +13.7 85 +15 +16 1021.5 1019.3
15 15.10 Ю 6 5000 м дымка ясно +15.0 +13.7 92 +13 +13 1020.4 1018.1
16 15.10 Ю 6 3600 м дымка ясно +14.6 +13.7 94 +13 +13 1020.0 1017.7
17 15.10 Ю 6 3200 м дымка ясно +14.4 +13.7 96 +12 +12 1019.9 1017.6
18 15.10 Ю 7 3500 м дымка ясно +14.7 +14.0 96 +13 +13 1019.4 1017.2 +13.5 +17.2
20 15.10 ЮЗ 9 26 км ясно +16.2 +13.4 83 +14 +14 1018.3 1016.1
19 15.10 Ю 7 7000 м дымка ясно +14.7 +13.9 95 +13 +13 1018.9 1016.6
21 15.10 ЮЗ 9 21 км {дымка} ясно +16.0 +13.2 83 +14 +14 1018.4 1016.2
22 15.10 ЮЗ 8 19 км ясно +15.3 +13.1 87 +13 +13 1018.6 1016.4
23 15.10 ЮЗ 8 15 км ясно +15.2 +13.0 87 +13 +13 1018.5 1016.2
00 16.10 ЮЗ 7 13 км ясно +14.9 +12.7 87 +13 +13 1018.4 1016.1
02 16.10 ЮЗ 5 9000 м дымка ясно +14.4 +12.6 89 +13 +13 1017.9 1015.6
01 16.10 ЮЗ 5 10 км ясно +14.6 +12.6 88 +13 +13 1018.1 1015.8
03 16.10 ЮЗ 5 5000 м дымка ясно +14.2 +12.8 91 +13 +13 1017.8 1015.5
04 16.10 ЮЗ 4 5000 м дымка ясно +13.8 +12.7 93 +12 +12 1018.0 1015.7
05 16.10 ЮЗ 5 5000 м дымка 1/1 300 м
[]
+13.5 +12.4 93 +12 +12 1018.2 1016.0
06 16.10 ЮЗ 5 4400 м дымка 10/10 450 м
[]
+13.7 +12.6 93 +12 +12 1018.2 1016.0 +13.4 +16.3
08 16.10 ЮЗ 6 4200 м дымка 6/6 360 м
[]
+14.2 +13.2 94 +12 +12 1019.0 1016.8
07 16.10 ЮЗ 4 3700 м дымка 4/4 330 м
[]
+13.8 +12.9 94 +12 +12 1018.6 1016.4
09 16.10 З 5 5000 м дымка н/о +14.8 +13.6 93 +13 +13 1019.5 1017.2
10 16.10 З 5 5000 м дымка 1/1 270 м
[]
+14.8 +13.6 93 +13 +15 1020.1 1017.8
11 16.10 З 3 4600 м дымка 4/4 210 м
[]
+14.8 +13.6 93 +14 +16 1020.2 1018.0
12 16.10 ЮЗ 4 3700 м дымка 6/6 210 м
[]
+14.8 +13.7 93 +13 +14 1020.1 1017.9
14 16.10 З 1 5000 м дымка 4/4 300 м
[]
+15.7 +13.6 87 +17 +18 1019.6 1017.4
13 16.10 ЮЗ 4 4200 м дымка 4/4 210 м
[]
+15.0 +13.8 93 +14 +15 1019.9 1017.7
15 16.10 ЮВ 3 3200 м дымка 9/9 330 м
[]
+14.6 +13.5 93 +14 +14 1019.6 1017.4
16 16.10 ЮВ 4 2400 м дымка 10/10 420 м
[]
+14.3 +13.5 95 +13 +13 1019.5 1017.2
17 16.10 Ю 5 2200 м дымка 9/9 480 м
[]
+14.1 +13.4 96 +12 +12 1019.5 1017.3
18 16.10 ЮВ 6 1800 м дымка ясно +13.9 +13.3 96 +12 +12 1019.1 1016.8 +13.6 +16.2
20 16.10 ЮВ 6 1800 м дымка ясно +14.0 +13.5 97 +12 +12 1018.4 1016.2
19 16.10 ЮВ 6 2100 м дымка ясно +13.9 +13.4 97 +12 +12 1018.9 1016.6
21 16.10 ЮВ 7 1700 м дымка ясно +14.0 +13.6 97 +12 +12 1018.2 1015.9 0.1
22 16.10 Ю 6 2200 м дымка ясно +14.2 +13.7 97 +12 +12 1017.9 1015.6
23 16.10 Ю 5 2000 м дымка ясно +14.1 +13.7 97 +12 +12 1017.6 1015.3
00 17.10 Ю 4 2800 м дымка ясно +14.2 +13.7 97 +13 +13 1017.3 1015.0
02 17.10 ЮЗ 9 10 км ясно +15.6 +13.7 88 +14 +14 1016.6 1014.4
01 17.10 ЮЗ 8 8000 м дымка ясно +15.3 +13.7 90 +13 +13 1017.1 1014.8
03 17.10 ЮЗ 9 11 км {дымка} ясно +15.5 +13.6 88 +13 +13 1016.2 1014.0
04 17.10 ЮЗ 10 14 км ясно +15.4 +12.7 84 +13 +13 1016.1 1013.9
05 17.10 З 11 17 км ясно +15.0 +11.9 82 +12 +12 1016.1 1013.9
06 17.10 ЮЗ 11 15 км {дымка} ясно +14.6 +11.8 83 +12 +12 1016.3 1014.1 +13.8 +15.9
08 17.10 ЮЗ 11 10 км 1/1 540 м
[]
+14.2 +11.8 85 +11 +11 1016.8 1014.6
07 17.10 ЮЗ 11 11 км ясно +14.1 +11.6 85 +11 +11 1016.6 1014.4
09 17.10 ЮЗ 12 9000 м дымка 4/4 330 м
[]
+14.2 +11.5 84 +11 +11 1016.7 1014.5
10 17.10 ЮЗ 12 10 км 1/1 540 м
[]
+14.5 +11.2 81 +12 +12 1017.0 1014.8
11 17.10 ЮЗ 12 11 км 1/1 750 м
[]
+14.8 +11.2 79 +12 +12 1016.8 1014.6
12 17.10 ЮЗ 13 11 км {дымка} 1/1 660 м
[]
+14.6 +10.7 77 +12 +12 1016.4 1014.1
14 17.10 ЮЗ 14 12 км 1/1 700 м
[]
+14.4 +10.5 77 +11 +11 1015.5 1013.2
13 17.10 З 13 11 км 1/1 660 м
[]
+14.8 +10.7 76 +12 +12 1016.1 1013.8
15 17.10 ЮЗ 14 12 км 1/1 400 м
[]
+14.1 +10.3 78 +11 +11 1015.2 1012.9
16 17.10 З 13 12 км 1/1 700 м
[]
+13.7 +10.3 80 +10 +10 1015.1 1012.9
17 17.10 З 12 14 км 1/1 800 м
[]
+13.5 +10.3 81 +10 +10 1015.2 1013.0
18 17.10 ЮЗ 11 13 км 4/4 660 м
[]
+13.3 +10.6 84 +10 +10 1015.4 1013.2 +13.2 +14.9
20 17.10 ЮЗ 10 11 км ясно +12.9 +10.5 85 +10 +10 1015.1 1012.8
19 17.10 ЮЗ 10 12 км 1/1 700 м
[]
+13.1 +10.5 84 +10 +10 1015.1 1012.8
21 17.10 ЮЗ 10 11 км {дымка} ясно +12.6 +10.5 87 +9 +9 1015.1 1012.8
22 17.10 ЮЗ 10 11 км 1/1 1050 м
[]
+12.6 +10.5 87 +9 +9 1014.7 1012.5
23 17.10 ЮЗ 9 12 км н/о +12.2 +10.5 89 +9 +9 1014.7 1012.5
00 18.10 ЮЗ 9 12 км ясно +12.0 +10.5 91 +8 +8 1014.6 1012.3
02 18.10 ЮЗ 9 12 км ясно +11.8 +10.3 91 +8 +8 1014.3 1012.0
01 18.10 ЮЗ 9 12 км ясно +12.0 +10.4 90 +8 +8 1014.5 1012.2
03 18.10 ЮЗ 9 11 км 1/1 840 м
[]
+11.7 +10.5 92 +8 +8 1014.3 1012.0
04 18.10 ЮЗ 8 11 км 1/0
[]
+11.8 +10.7 93 +8 +8 1014.4 1012.1
05 18.10 ЮЗ 8 11 км ясно +11.9 +10.7 92 +9 +9 1014.3 1012.0
06 18.10 З 6 13 км ясно +12.0 +10.5 91 +9 +9 1014.3 1012.1 +11.5 +13.4
08 18.10 ЮЗ 6 н/о 1/1 800 м
[]
+12.6 +10.7 88 +10 +10 1015.1 1012.8
07 18.10 З 7 13 км ясно +12.3 +10.3 88 +9 +9 1014.7 1012.4
09 18.10 ЮЗ 4 13 км ясно +12.9 +11.1 89 +11 +12 1015.1 1012.8
10 18.10 ЮЗ 5 12 км 1/1 720 м
[]
+13.1 +11.5 90 +11 +12 1015.5 1013.2
11 18.10 З 3 18 км 1/1 840 м
[]
+13.9 +11.4 85 +13 +15 1015.3 1013.1
12 18.10 ЮЗ 3 20 км ясно +15.0 +11.6 80 +14 +17 1015.1 1012.8
14 18.10 ЮЗ 2 20 км ясно +14.5 +11.6 83 +14 +16 1015.0 1012.8
13 18.10 ЮЗ 2 21 км ясно +15.0 +11.8 81 +15 +17 1014.9 1012.6
15 18.10 Ю 3 20 км 6/6 840 м
[]
+14.1 +11.9 87 +13 +13 1014.9 1012.7
16 18.10 Ю 4 18 км 4/4 960 м
[]
+13.6 +11.8 89 +12 +12 1015.0 1012.7
17 18.10 ЮВ 3 17 км ясно +13.6 +11.7 88 +12 +12 1015.0 1012.7
18 18.10 ЮВ 3 21 км 1/1 840 м
[]
+13.4 +11.4 88 +12 +12 1015.2 1012.9 +12.0 +15.5
20 18.10 В 4 18 км в посл. час дождь {ливн. осадки} 1/1 60 м
[]
+13.2 +11.7 91 +12 +12 1015.3 1013.1 0.1
19 18.10 В 2 20 км 4/4 840 м
[]
+13.5 +11.8 89 +13 +13 1015.3 1013.1
21 18.10 СВ 3 13 км слаб. дождь {ливн. осадки} 6/6 750 м
[]
+13.1 +11.8 92 +12 +12 1015.5 1013.2 0.1
22 18.10 СВ 5 6000 м ливневой дождь 10/10 270 м
[]
+12.7 +11.9 95 +10 +10 1015.6 1013.4 0.3
23 18.10 В 6 11 км слаб. ливневой дождь 4/4 90 м
[]
+12.4 +11.7 95 +10 +10 1015.6 1013.3 1
00 19.10 В 6 17 км слаб. ливневой дождь 1/1 180 м
[]
+12.6 +11.5 93 +10 +10 1015.5 1013.3 1
02 19.10 СВ 5 45 км {ливн. осадки, дождь} 6/6 210 м
[]
+11.2 +9.2 87 +8 +8 1015.3 1013.0
01 19.10 СВ 5 30 км 1/1 120 м
[]
+11.4 +9.1 86 +9 +9 1015.5 1013.2
03 19.10 В 7 15 км {ливн. осадки, дождь} 1/1 1200 м
[]
+12.3 +11.1 92 +9 +9 1015.0 1012.8 0.0
04 19.10 В 7 8000 м дымка 4/4 120 м
[]
+12.7 +11.8 94 +10 +10 1014.8 1012.6
05 19.10 В 7 9000 м дымка 9/9 150 м
[]
+12.7 +11.7 94 +10 +10 1014.6 1012.4
06 19.10 В 7 10 км {ливн. осадки, дождь} 4/4 180 м
[]
+12.7 +11.6 93 +10 +10 1014.7 1012.4 +10.9 +13.6
08 19.10 ЮВ 9 15 км 9/9 720 м
[]
+13.0 +11.0 88 +10 +10 1014.9 1012.6
07 19.10 В 9 14 км 4/4 420 м
[]
+12.9 +11.4 91 +10 +10 1014.8 1012.5
09 19.10 ЮВ 8 12 км ясно +13.0 +11.1 88 +10 +10 1014.9 1012.7
10 19.10 ЮВ 9 13 км ясно +13.2 +11.3 88 +10 +10 1014.7 1012.5
11 19.10 В 10 13 км ясно +13.3 +11.6 89 +10 +10 1014.7 1012.4
12 19.10 В 10 13 км 6/6 700 м
[]
+13.1 +11.4 89 +10 +10 1014.4 1012.2
14 19.10 В 11 13 км 1/1 840 м
[]
+13.1 +11.6 91 +10 +10 1013.7 1011.4
13 19.10 В 11 14 км ясно +13.1 +11.5 90 +10 +10 1014.1 1011.9
15 19.10 В 11 14 км ясно +13.3 +11.6 89 +10 +10 1013.5 1011.2
16 19.10 В 12 15 км ясно +13.0 +11.3 89 +9 +9 1013.3 1011.0
17 19.10 В 11 15 км 6/6 300 м
[]
+13.1 +11.5 90 +10 +10 1013.4 1011.1

 

Местоположение метеостанции Kegnaes (Дания): широта 54.85 долгота 9.98 высота над уровнем моря 17 м.

В архиве по умолчанию представлена погода в Kegnaes за последнюю неделю. Архивные данные за месяц целиком и за предыдущие месяцы, начиная с января 2011 года, Вы можете получить, выбрав интересующий диапазон дат из раскрывающегося списка и нажав кнопку "Ввод!".

Внимание! Время в таблицах - всемирное. Для получения местного времени необходимо прибавить поправку, которая в Kegnaes равна 1 ч.

Смотрите также архив погоды в соседних городах и на ближайших метеорологических станциях:

Погода в Olpenitz (Германия) (20 км)
Погода в Gluecksburg (Германия) (31 км)
Погода в Taasinge (Дания) (42 км)
Погода в Leuchtturm Kiel (Германия) (43 км)
Погода в Toroe (Дания) (45 км)
Погода в Schleswig (Германия) (45 км)
Погода в Schleswig Airport (Германия) (52 км)
Погода в Kiel-Holtenau (Германия) (53 км)
Погода в Aarslev (Дания) (59 км)
Погода в Skrydstrup (Дания) (62 км)

Пояснения к столбцам:

Ветер - указаны скорость ветра в м/с - средняя за 10 мин, порывы в срок и между сроками (в фигурных скобках) и направление, откуда дует ветер: С - северный, СВ - северо-восточный, В - восточный, ЮВ - юго-восточный, Ю - южный, ЮЗ - юго-западный, З - западный, СЗ - северо-западный.
Видимость - горизонтальная дальность видимости в метрах или километрах. При видимости от 1 до 10 км при отсутствии осадков обычно наблюдается дымка, при ухудшении видимости до 1 км и менее - туман. В сухую погоду видимость может ухудшаться дымом, пылью или мглою.
Явления - указаны атмосферные явления, наблюдавшиеся в срок или в последний час перед сроком; фигурными скобками обозначены явления, наблюдавшиеся между сроками (за 1-3 часа до срока); квадратными скобками обозначены град или гололедные отложения с указанием их диаметра в мм.
Облачность - указаны через наклонную черту общая и нижняя облачность в баллах и высота нижней границы облаков в метрах; квадратными скобками обозначены формы облаков: Ci - перистые, Cs - перисто-слоистые, Cc - перисто-кучевые, Ac - высококучевые, As - высокослоистые, Sc - слоисто-кучевые, Ns - слоисто-дождевые, Cu - кучевые, Cb - кучево-дождевые. Подробнее классификацию облаков см. в Атласе облаков (PDF).
T - Температура воздуха - температура, измеренная на высоте 2 м над землей.
Td - Температура точки росы - температура, при понижении до которой содержащийся в воздухе водяной пар достигнет насыщения.
f - Относительная влажность воздуха - влажноcть воздуха, измеренная на высоте 2 м над землей.
Te - Эффективная температура - температура, которую ощущает одетый по сезону человек в тени. Характеристика душности погоды. При расчете учитывается влияние влажности воздуха и скорости ветра на теплоощущения человека.
Tes - Эффективная температура на солнце - температура, которую ощущает человек, с поправкой на солнечный нагрев. Характеристика знойности погоды. Зависит от высоты солнца над горизонтом, облачности и скорости ветра. Ночью, в пасмурную погоду, а также при ветре 12 м/с и более поправка равна нулю.
P - Атмосферное давление - приведенное к уровню моря атмосферное давление.
Po - Атмосферное давление - измеренное на уровне метеостанции атмосферное давление.
Tmin - Минимальная температура - минимум температуры воздуха на высоте 2 м над землей.
Tmax - Максимальная температура - максимум температуры воздуха на высоте 2 м над землей.
R - Количество осадков - Количество выпавших осадков за период времени, мм. При наведении курсора мыши на число - период времени, за который выпало указанное количество осадков.
R24 - Количество осадков - Количество выпавших осадков за 24 часа, мм.
S - Снежный покров - Высота снежного покрова, см. При наведении курсора мыши на число - состояние снежного покрова и степень покрытия местности в баллах.